Weather Roundup
Issued by NWS Chicago, IL

Home | Current Version | Previous Version | Text Only | Print | Product List | Glossary On
Versions: 1 2 3 4 5 6 7 8 9 10 11 12 13 14 15 16 17 18 19 20 21 22 23 24 25 26 27 28 29 30 31 32 33 34 35 36 37 38 39 40 41 42 43 44 45 46 47 48 49 50
000
NZUS59 KLOT 210308
HRRLOT

CHICAGO AREA WEATHER ROUNDUP
NATIONAL WEATHER SERVICE CHICAGO/ROMEOVILLE IL
1000 PM CDT SUN AUG 20 2017

NOTE: "FAIR" INDICATES FEW OR NO CLOUDS BELOW 12,000 FEET WITH NO
SIGNIFICANT WEATHER AND/OR OBSTRUCTIONS TO VISIBILITY.

* THESE STATIONS ARE NOT UNDER NWS QUALITY CONTROL. THEY ALSO MAY NOT
  REPORT WEATHER SUCH AS PRECIPITATION OR FOG.

ILZ005-006-012>014-019>023-210400-
NORTHEAST ILLINOIS

CITY           SKY/WX    TMP DP  RH WIND       PRES   REMARKS
OHARE          CLOUDY    80  70  71 CALM      30.03S HX  83
MIDWAY         CLOUDY    82  70  66 SE6       30.03S HX  86
AURORA         TSTM      74  73  97 NE6       30.02F
LANSING*       CLOUDY    76  67  73 SE3       30.04S
JOLIET*        CLOUDY    78  72  81 E6        30.02S HX  81
WAUKEGAN       CLOUDY    75  70  84 CALM      30.03S
DUPAGE AIRPORT CLOUDY    76  73  91 E8        30.02F
WHEELING       CLOUDY    78  73  84 SE3       30.05R HX  81
MORRIS*        PTCLDY    76  70  81 SE7       30.00S
LEWIS AIRPORT* CLOUDY    76  68  77 SE7       30.02F
NORTHERLY ISL    N/A     76  70  82 S3          N/A
$$

WIZ051-052-058>065-066-070>072-210400-
SOUTHEAST WISCONSIN

CITY           SKY/WX    TMP DP  RH WIND       PRES   REMARKS
MILWAUKEE      PTCLDY    72  65  78 SE5       30.03S
KENOSHA*       CLOUDY    72  67  84 CALM      30.04S
RACINE*        PTCLDY    73  68  84 CALM      30.05S
WEST BEND      CLEAR     66  66 100 CALM      30.04R
$$

INZ001>003-010>013-019-020-210400-
NORTHWEST INDIANA

CITY           SKY/WX    TMP DP  RH WIND       PRES   REMARKS
GARY*          MOCLDY    75  70  83 SE5       30.04F
MICHIGAN CITY* NOT AVBL
RENSSELAER*    NOT AVBL
VALPARAISO     CLOUDY    78  69  73 SE6       30.06R HX  80
$$

LMZ740>746-210400-
SOUTHERN LAKE MICHIGAN

STATION/POSITION TIME  SKY/WX   TEMP WIND        PRES    VSBY
                                AIR  DIR/SP/G
                 (UTC)          (F)  (DEG/KT/KT) (MB)    (MI)
HARRISON CRIB    0240            78  130/  6/  7   N/A
BURNHAM HARBOR   NOT AVBL
CALUMET HARBOR   0248            81  150/  2/  4 1016.5S
BURNS HARBOR     0240            82  170/  9/ 14 1017.6R
MICHIGAN CITY    0240            80  150/  8/ 10   N/A
$$

ABBREVIATIONS USED IN REMARKS
   TC - TEMPERATURE IN CELSIUS
  WCI - WIND CHILL INDEX
   HX - HEAT INDEX
  VSB - VISIBILITY
$$



USA.gov is the U.S. government's official web portal to all federal, state and local government web resources and services.